This demonstration page uses our WeatherBlox Daily Observations layout. Learn more.

Left ArrowRight Arrow

Hourly Observations for December 24, 2015

Temp ( °F °C ) Dew Point ( °F °C ) Humidity (%) Winds ( mph kmh ) Pressure ( in mb ) Visibility ( mi km ) Precip ( " mm )
12:53 am 00:53 Cloudy with Light Rain 68 20 65 18.3 90 90 S 9 15 29.87 1012 10 16 0.01 0.25
1:24 am 01:24 Cloudy with Rain 70 21 66 19 88 88 S 13 20 29.88 1012 5 8 0.00 0.00
1:37 am 01:37 Cloudy with Light Rain 69 20.6 65 18.3 87 87 S 13 20 29.85 1011 10 16 0.03 0.76
1:53 am 01:53 Cloudy with Light Rain 69 20.6 65 18.3 87 87 S 12 19 29.87 1012 10 16 0.03 0.76
2:20 am 02:20 Cloudy 70 21 64 18 83 83 S 12 19 29.85 1011 10 16 0.00 0.00
2:31 am 02:31 Cloudy 69 20.6 65 18.3 87 87 S 13 20 29.85 1011 10 16 0.00 0.03
2:53 am 02:53 Cloudy 70 21.1 66 18.9 87 87 S 15 24 29.87 1011 10 16 0.00 0.03
3:10 am 03:10 Cloudy 70 21 66 19 88 88 S 14 22 29.85 1011 10 16 0.00 0.00
3:53 am 03:53 Partly Cloudy 70 21.1 65 18.3 84 84 SSW 9 15 29.88 1012 10 16 0.00 0.03
4:53 am 04:53 Mostly Clear 70 21.1 66 18.9 87 87 SSW 12 19 29.86 1011 10 16 0.00 0.03
5:34 am 05:34 Mostly Cloudy 72 22 66 19 83 83 SSW 8 13 29.88 1012 10 16 0.00 0.00
5:53 am 05:53 Mostly Cloudy 71 21.7 67 19.4 87 87 SSW 12 19 29.89 1012 10 16 0.00 0.00
6:06 am 06:06 Partly Cloudy 72 22 66 19 83 83 SSW 12 19 29.88 1012 10 16 0.00 0.00
6:37 am 06:37 Mostly Clear with Nearby Thunderstorms 73 22.8 66 18.9 79 79 SW 10 17 29.91 1013 10 16 0.00 0.00
6:53 am 06:53 Mostly Cloudy with Light Rain 73 22.8 66 18.9 79 79 SSW 9 15 29.93 1014 10 16 0.00 0.03
7:17 am 07:17 Cloudy with Light Rain 71 21.7 66 18.9 84 84 SSW 6 9 29.94 1014 10 16 0.01 0.25
7:23 am 07:23 Cloudy with Nearby Thunderstorms 71 21.7 66 18.9 84 84 SSW 7 11 29.94 1014 10 16 0.01 0.25
7:35 am 07:35 Cloudy with Thunderstorms 71 21.7 66 18.9 84 84 WNW 7 11 29.94 1014 3 5 0.10 2.54
7:38 am 07:38 Cloudy with Strong Thunderstorms 70 21 66 19 88 88 VRB 6 9 29.97 1015 2 2 0.00 0.00
7:45 am 07:45 Cloudy with Strong Thunderstorms 70 21.1 66 18.9 87 87 SSW 15 24 29.97 1015 3 4 0.32 8.13
7:53 am 07:53 Cloudy with Strong Thunderstorms 68 20 65 18.3 90 90 SSW 20 31 30.01 1016 3 4 0.55 13.97
7:55 am 07:55 Cloudy with Strong Thunderstorms 67 19.4 65 18.3 93 93 S 14 22 30.00 1016 1 2 0.07 1.78
8:09 am 08:09 Cloudy with Strong Thunderstorms 66 18.9 63 17.2 90 90 SSW 10 17 30.00 1016 2 3 0.27 6.86
8:36 am 08:36 Cloudy with Light Rain 68 20 64 18 88 88 SW 10 17 30.00 1016 2 3 0.00 0.00
8:53 am 08:53 Cloudy with Light Rain 68 20 65 18.3 90 90 SSW 7 11 30.01 1016 8 13 0.53 13.46
9:31 am 09:31 Cloudy with Heavy Rain 68 20 65 18.3 90 90 S 5 7 30.03 1017 7 11 0.47 11.94
9:36 am 09:36 Cloudy with Strong Thunderstorms 68 20 66 19 94 94 SE 10 17 30.03 1017 0 0 0.00 0.00
9:41 am 09:41 Cloudy with Strong Thunderstorms 69 20.6 66 18.9 90 90 VRB 6 9 30.00 1016 1 1 0.73 18.54
9:44 am 09:44 Cloudy with Rain 68 20 66 19 94 94 N 8 13 30.03 1017 1 2 0.00 0.00
9:51 am 09:51 Cloudy with Rain 68 20 66 19 94 94 NE 6 9 30.03 1017 5 8 0.74 18.80
9:53 am 09:53 Cloudy with Rain 68 20 66 18.9 93 93 NE 5 7 30.02 1017 5 8 0.74 18.80
10:53 am 10:53 Cloudy with Nearby Thunderstorms 69 20.6 66 18.9 90 90 ESE 6 9 30.03 1017 10 16 0.02 0.51
11:00 am 11:00 Cloudy 70 21 66 19 88 88 SE 5 7 30.06 1018 7 11 0.00 0.00
11:51 am 11:51 Cloudy with Nearby Thunderstorms 68 20 66 19 94 94 S 3 6 30.06 1018 10 16 0.00 0.03
11:53 am 11:53 Cloudy with Nearby Thunderstorms 68 20 66 18.9 93 93 SSW 3 6 30.04 1017 10 16 0.00 0.03
12:42 pm 12:42 Cloudy with Heavy Rain 68 20 66 19 94 94 S 6 9 30.06 1018 2 2 0.00 0.00
12:53 pm 12:53 Cloudy with Light Rain 68 20 66 18.9 93 93 SSE 6 9 30.03 1017 3 5 0.14 3.56
1:42 pm 13:42 Cloudy 68 20 66 18.9 93 93 Calm 30.06 1018 8 13 0.00 0.03
1:53 pm 13:53 Cloudy with Light Rain 68 20 66 18.9 93 93 SSE 5 7 30.03 1017 8 13 0.01 0.25
2:48 pm 14:48 Partly Cloudy 70 21 66 19 88 88 SSE 5 7 30.00 1016 10 16 0.00 0.00
2:53 pm 14:53 Mostly Cloudy 69 20.6 67 19.4 93 93 SSE 6 9 30.01 1016 10 16 0.00 0.03
3:53 pm 15:53 Cloudy with Light Rain 70 21.1 67 19.4 90 90 SSE 6 9 30.04 1017 10 16 0.00 0.03
4:19 pm 16:19 Cloudy with Nearby Thunderstorms 69 20.6 67 19.4 93 93 SSW 3 6 30.06 1018 10 16 0.01 0.25
4:32 pm 16:32 Cloudy with Light Rain 70 21 66 19 88 88 Calm 30.06 1018 5 8 0.00 0.00
4:48 pm 16:48 Cloudy with Light Rain 70 21 66 19 88 88 Calm 30.09 1019 10 16 0.00 0.00
4:53 pm 16:53 Cloudy 69 20.6 67 19.4 93 93 Calm 30.05 1018 10 16 0.05 1.27
5:28 pm 17:28 Cloudy with Heavy Rain 70 21 66 19 88 88 SSW 3 6 30.09 1019 3 4 0.00 0.00
5:34 pm 17:34 Cloudy with Light Rain 70 21 66 19 88 88 SW 3 6 30.09 1019 4 6 0.00 0.00
5:53 pm 17:53 Cloudy 69 20.6 67 19.4 93 93 SSW 6 9 30.08 1019 10 16 0.14 3.56
6:00 pm 18:00 Cloudy 70 21 66 19 88 88 Calm 30.09 1019 10 16 0.00 0.00
6:53 pm 18:53 Cloudy with Light Rain 68 20 66 18.9 93 93 Calm 30.09 1019 10 16 0.01 0.25
7:53 pm 19:53 Cloudy with Light Rain 69 20.6 66 18.9 90 90 S 9 15 30.13 1020 10 16 0.04 1.02
8:00 pm 20:00 Mostly Cloudy with Light Rain 70 21 66 19 88 88 S 9 15 30.15 1021 10 16 0.00 0.00
8:49 pm 20:49 Cloudy with Light Rain 70 21 66 19 88 88 S 5 7 30.18 1022 10 16 0.04 1.02
8:53 pm 20:53 Cloudy with Light Rain 69 20.6 66 18.9 90 90 S 5 7 30.15 1021 10 16 0.05 1.27
9:53 pm 21:53 Mostly Clear 67 19.4 64 17.8 91 91 SE 5 7 30.15 1021 10 16 0.01 0.25
10:53 pm 22:53 Partly Cloudy 66 18.9 63 17.2 90 90 VRB 5 7 30.18 1022 10 16 0.01 0.25
11:53 pm 23:53 Clear 66 18.9 62 16.7 87 87 VRB 5 7 30.17 1022 10 16 0.00 0.03

Powered by AerisWeather